Regional Weather Roundup
Issued by NWS Charleston, SC

Current Version | Previous Version | Graphics & Text | Print | Product List | Glossary On
Versions: 1 2 3 4 5 6 7 8 9 10 11 12 13 14 15 16 17 18 19 20 21 22 23 24 25 26 27 28 29 30 31 32 33 34 35 36 37 38 39 40 41 42 43 44 45 46 47 48 49 50
000
ASUS42 KCHS 061312
RWRCHS

REGIONAL WEATHER ROUNDUP
NATIONAL WEATHER SERVICE CHARLESTON SC
900 AM EDT WED MAY 06 2015

NOTE: "FAIR" INDICATES FEW OR NO CLOUDS BELOW 12,000 FEET WITH NO
SIGNIFICANT WEATHER AND/OR OBSTRUCTIONS TO VISIBILITY.

NOT ALL STATIONS ARE QUALITY CONTROLLED BY THE NATIONAL
WEATHER SERVICE. USE DATA WITH CAUTION...ESPECIALLY
DEWPOINT OBSERVATIONS.

SCZ027-030-031-034>040-042>050-061400-
...SOUTHEAST SOUTH CAROLINA...

CITY           SKY/WX    TMP DP  RH WIND       PRES   REMARKS
N CHARLESTON   CLOUDY    68  62  81 NE9       30.18S
WATERFRONT PRK   N/A     70 N/A N/A NE13        N/A
MOUNT PLEASANT FAIR      66  64  94 MISG      30.18S
PINOPOLIS      NOT AVBL
MONCKS CORNER  FAIR      68  61  77 NE8       30.19S
SUMMERVILLE    FAIR      64  64 100 N3        30.20S
BEAUFORT MCAS  CLOUDY    67  63  87 NE9       30.17S
BEAUFORT ARPT  FAIR      68  64  88 NE13      30.16F
HILTON HEAD IS PTSUNNY   70  64  83 N7        30.17R
WALTERBORO     PTSUNNY   64  61  88 NE7       30.19F
ALLENDALE      FAIR      64  61  88 NE3       30.19S

...SOUTHERN MIDLANDS AND PEE DEE...

CITY           SKY/WX    TMP DP  RH WIND       PRES   REMARKS
GEORGETOWN     NOT AVBL
KINGSTREE      NOT AVBL
ORANGEBURG     MOSUNNY   66  58  75 NE7       30.22R
BARNWELL       FAIR      64  61  88 NE5       30.22S
AIKEN          FAIR      63  57  82 NE5       30.25S
MANNING        FAIR      61  54  77 NE3       30.21F
COLUMBIA       PTSUNNY   67  57  70 CALM      30.22S
SUMTER         PTSUNNY   64  58  82 NE6       30.21S
FLORENCE       PTSUNNY   64  57  78 E7        30.23R
MYRTLE BEACH   MOSUNNY   70  59  68 NE9       30.23S
N MYRTLE BEACH CLOUDY    68  60  75 NE8       30.21S

$$

GAZ063-065-086>088-099>101-113>116-118-119-134>141-150-061400-
...SOUTHEAST GEORGIA...

CITY           SKY/WX    TMP DP  RH WIND       PRES   REMARKS
SAVANNAH ARPT  CLOUDY    66  61  84 NE8       30.16S
HUNTER AAF     CLOUDY    68  64  86 VRB3      30.13S
FORT STEWART   PTSUNNY   66  62  85 NE7       30.14S
STATESBORO       N/A     65  65 100 NE3       30.19S
SYLVANIA       PTSUNNY   64  62  95 NE6       30.20S
CLAXTON        FAIR      66  63  88 NE3       30.18S

...CSRA...CENTRAL AND FAR SOUTHEAST GEORGIA...

CITY           SKY/WX    TMP DP  RH WIND       PRES   REMARKS
THOMSON        MOSUNNY   61  60  98 CALM      30.27S
AUGUSTA-BUSH   PTSUNNY   65  59  81 N3        30.21S
AUGUSTA-DANIEL PTSUNNY   68  58  70 NE5       30.22S
SWAINSBORO     FAIR      64  63  94 NE5       30.21R
VIDALIA        MOSUNNY   63  61  94 NE6       30.19S
EASTMAN        FAIR      66  64  94 NE5       30.22S
HAZLEHURST     FAIR      67  64  89 NE6       30.17S
ALMA           MOSUNNY   67  61  81 VRB6      30.16R
WAYCROSS       MOSUNNY   70  67  90 NE7       30.15S
JESUP          FAIR      70  64  83 NE8       30.16R
BAXLEY         FAIR      70  63  78 NE8       30.17R
BRUNSWICK      CLOUDY    70  64  83 NE10      30.15R
SAINT SIMONS   CLOUDY    72  66  81 NE15      30.13R

$$

SCZ027-028-034-036>038-045-046-048>050-GAZ119-141-061400-
...LAKE AND SUPPLEMENTAL COASTAL OBSERVATIONS...

STATION/POSITION TIME  TEMP    WIND        PRES    WAVE   SWELL
                       AIR SEA DIR/SP/G            HT/PER HT/PER/DIR
                 (UTC) (F)     (DEG/KT/KT) (MB)    (FT/S) (FT/S/D)
UPR LAKE MARION  NOT AVBL
WINYAH BAY       NOT AVBL
LAKE MURRAY      1200   63      10/  2/  3 1023.0S
ACE BASIN NERRS  NOT AVBL
FORT PULASKI     1212   67 71   10/  8/ 10 1021.5R
SAPELO ISLAND    1200   68      20/  7     1020.0S

$$

ANZ835-935-AMZ111-154-330-350-352-354-370-450-454-472-061400-
...C-MAN AND BUOY OBSERVATIONS...

STATION/POSITION TIME  TEMP    WIND        PRES    WAVE   SWELL
                       AIR SEA DIR/SP/G            HT/PER HT/PER/DIR
                 (UTC) (F)     (DEG/KT/KT) (MB)    (FT/S) (FT/S/D)
BUOY 41004       1250   73 73   50/ 17/ 21 1020.2F   6/ 8   3/ 8
BUOY 41008       1250   70 70   40/ 16/ 19 1020.0S   5/ 8   3/110/ 8
FOLLY BEACH CMAN 1200   68      30/ 14/ 16 1021.6R
CAPERS NEARSHORE 1208   70      50/ 16/ 21 1021.8R
FRIPP NEARSHORE  1200   69      40/ 14/ 16 1020.5R


STATION/POSITION TIME  TEMP    WIND        PRES    WAVE   SWELL
                       AIR SEA DIR/SP/G            HT/PER HT/PER/DIR
                 (UTC) (F)     (DEG/KT/KT) (MB)    (FT/S) (FT/S/D)
5E ST. MARYS GA  1221      71                N/A     5/ 8
FRYING PAN BUOY  1250   73 72   90/ 14/ 17 1022.9F   4/ 7   3/140/ 7
BUOY 41025       1250   71 75  100/  8/ 10 1024.5R   3/10   3/ 60/10
CAPE LOOKOUT NC  1200   67      40/  8/  9 1023.7R
BUOY 41002       1250   66 71   70/ 23/ 27 1021.2S   7/ 8   2/ 80/11
BUOY 41010       1220   72 78   30/ 16/ 17 1016.1R
ST AUGUSTINE FL  1300   71 72   10/ 17/ 19 1019.5S


$$



USA.gov is the U.S. government's official web portal to all federal, state and local government web resources and services.